TimeEST,TemperatureF,Dew PointF,Humidity,Sea Level PressureIn,VisibilityMPH,Wind Direction,Wind SpeedMPH,Gust SpeedMPH,PrecipitationIn,Events,Conditions,WindDirDegrees,DateUTC
2:00 AM,27.0,21.9,81,29.96,-9999.0,Calm,Calm,-,N/A,,Clear,0,2013-02-13 07:00:00
3:00 AM,24.1,19.9,84,29.94,-9999.0,Calm,Calm,-,N/A,,Clear,0,2013-02-13 08:00:00
4:00 AM,27.0,23.0,85,29.91,-9999.0,Calm,Calm,-,N/A,,Clear,0,2013-02-13 09:00:00
5:00 AM,25.0,21.9,88,29.93,-9999.0,Calm,Calm,-,N/A,,Clear,0,2013-02-13 10:00:00
6:00 AM,21.9,19.9,92,29.92,-9999.0,Calm,Calm,-,N/A,,Clear,0,2013-02-13 11:00:00
7:00 AM,21.9,19.9,92,29.91,-9999.0,Calm,Calm,-,N/A,,Clear,0,2013-02-13 12:00:00
8:00 AM,26.1,24.1,92,29.91,-9999.0,Calm,Calm,-,N/A,,Clear,0,2013-02-13 13:00:00
10:00 AM,39.0,23.0,53,29.89,-9999.0,East,6.9,-,N/A,,Clear,100,2013-02-13 15:00:00
11:00 AM,41.0,23.0,49,29.88,-9999.0,East,4.6,-,N/A,,Clear,80,2013-02-13 16:00:00
12:00 PM,41.0,23.0,49,29.85,-9999.0,East,5.8,-,N/A,,Clear,90,2013-02-13 17:00:00
1:00 PM,43.0,24.1,47,29.80,-9999.0,East,4.6,-,N/A,,Clear,90,2013-02-13 18:00:00
2:00 PM,42.1,27.0,55,29.77,-9999.0,ESE,9.2,-,N/A,,Partly Cloudy,120,2013-02-13 19:00:00
3:00 PM,43.0,27.0,53,29.76,-9999.0,ESE,4.6,-,N/A,,Scattered Clouds,110,2013-02-13 20:00:00
4:00 PM,42.1,28.0,58,29.72,-9999.0,ENE,9.2,-,N/A,,Mostly Cloudy,70,2013-02-13 21:00:00
5:00 PM,39.9,28.9,65,29.69,-9999.0,ENE,9.2,-,N/A,,Overcast,60,2013-02-13 22:00:00
5:19 PM,39.2,28.4,65,29.70,-9999.0,East,9.2,-,N/A,,Overcast,100,2013-02-13 22:19:00
6:00 PM,39.0,28.9,67,29.70,-9999.0,East,5.8,-,0.00,Rain,Light Rain,90,2013-02-13 23:00:00
7:00 PM,37.0,30.0,76,29.68,-9999.0,NE,3.5,-,0.00,Rain,Light Rain,40,2013-02-14 00:00:00
7:22 PM,35.6,30.2,81,29.70,-9999.0,Calm,Calm,-,0.00,Snow,Snow,0,2013-02-14 00:22:00
7:42 PM,33.8,30.2,87,29.70,-9999.0,Calm,Calm,-,0.00,Snow,Snow,0,2013-02-14 00:42:00
7:55 PM,33.8,32.0,93,29.70,-9999.0,Calm,Calm,-,0.00,Snow,Snow,0,2013-02-14 00:55:00
8:00 PM,33.8,32.0,93,29.70,-9999.0,Calm,Calm,-,0.00,Snow,Snow,0,2013-02-14 01:00:00
8:06 PM,33.1,32.0,96,29.69,-9999.0,Calm,Calm,-,0.00,Snow,Snow,0,2013-02-14 01:06:00
8:33 PM,33.8,32.0,93,29.69,-9999.0,Calm,Calm,-,0.00,Snow,Snow,0,2013-02-14 01:33:00
9:00 PM,33.1,30.9,92,29.69,-9999.0,Variable,3.5,-,0.00,Snow,Snow,0,2013-02-14 02:00:00
11:00 PM,33.1,32.0,96,29.67,-9999.0,Variable,3.5,-,0.00,Snow,Snow,0,2013-02-14 04:00:00